Temperature
23 23 23 23 23 23 23 24 24 24 25 25 24 24 23 22 21 19 18 18 18 18 18 18 17 17 17 17 17 17 17 17 17 17 17 17 17 17 17 17 17 17 17 17 17 17 17 17 17
23 23 23 24 23 23 23 24 24 24 24 24 24 24 23 21 20 19 18 18 18 18 18 18 17 17 17 17 17 17 17 17 17 17 17 17 17 17 17 17 17 17 17 17 17 17 17 17 17
23 23 24 24 23 23 23 24 24 24 24 24 24 23 22 20 20 19 18 18 18 18 18 18 17 17 17 17 17 17 17 17 17 17 17 17 17 17 17 17 17 17 17 17 17 17 17 17 17
23 24 25 24 23 24 24 24 24 25 24 24 24 22 20 20 19 19 19 19 18 18 18 18 18 18 17 17 17 17 17 17 17 17 17 17 17 17 17 17 17 17 17 17 17 17 17 17 17
24 25 24 23 23 24 25 25 24 24 24 24 23 21 20 19 19 19 19 19 18 18 18 18 18 18 17 17 17 17 17 17 17 17 17 17 17 17 17 17 17 17 17 17 17 17 17 17 17
25 25 23 22 23 24 25 25 24 24 24 23 23 22 20 19 19 19 19 18 18 18 18 18 18 18 17 17 17 17 17 17 17 17 17 17 17 17 17 17 17 17 17 17 17 17 17 17 17
25 24 23 23 23 23 24 25 24 24 23 23 23 21 20 19 19 19 19 18 19 18 18 18 18 18 18 17 17 17 17 17 17 17 17 17 17 17 17 17 17 17 17 17 17 17 16 16 16
24 24 24 23 23 23 24 24 24 23 23 23 23 21 20 19 19 19 19 19 19 18 18 18 18 18 18 18 17 17 17 17 17 17 17 17 17 16 16 16 16 16 16 16 16 16 16 16 16
25 24 23 23 23 23 24 24 24 23 23 22 22 21 20 19 19 19 19 19 19 19 18 18 18 18 18 18 17 17 17 17 17 17 17 16 16 16 16 16 16 16 16 16 16 16 16 16 16
25 23 24 24 24 24 24 24 24 23 23 22 21 20 20 19 19 19 19 19 19 19 18 18 18 18 18 17 17 17 17 17 17 17 17 17 16 16 16 16 16 16 16 16 16 16 16 16 16
25 24 24 25 25 24 24 24 23 23 22 22 21 20 20 20 20 20 19 19 19 18 18 18 18 18 18 18 17 17 17 17 17 17 17 17 16 16 16 16 16 16 16 16 16 16 16 16 16
25 25 25 24 24 24 24 24 23 23 22 22 21 21 20 20 20 20 19 19 19 18 18 18 18 18 18 18 17 17 17 17 17 17 17 16 16 16 16 16 16 16 16 15 16 15 15 15 15
25 24 24 24 24 23 23 23 23 22 22 21 21 21 20 20 20 20 19 19 19 19 18 18 18 18 18 18 17 17 17 17 16 16 16 16 16 16 16 16 16 16 15 15 15 15 15 15 15
25 24 24 24 24 23 23 23 22 22 22 22 21 21 21 20 20 20 19 19 19 18 18 18 18 18 18 18 17 17 17 17 16 16 16 16 16 16 16 16 15 15 15 15 15 15 15 15 15
24 24 24 24 24 24 24 22 23 22 22 22 21 21 20 20 20 19 19 19 19 19 18 18 18 18 18 17 17 17 17 16 16 16 16 16 16 16 16 16 15 15 15 15 15 15 15 15 15
25 24 23 24 24 24 23 21 22 22 22 22 22 21 20 20 20 19 19 19 19 18 18 18 18 18 18 17 17 17 17 16 16 16 16 16 16 16 16 15 15 15 15 15 15 15 15 15 15
24 23 23 23 24 24 23 22 22 22 22 22 22 21 21 20 20 19 19 19 19 18 18 18 18 17 17 17 17 17 17 16 16 16 16 16 16 16 15 15 15 15 15 15 15 15 15 15 14
24 24 24 24 24 24 23 22 23 22 22 22 22 21 21 20 20 19 19 19 18 18 18 18 17 17 17 17 17 17 16 16 16 16 16 16 16 15 15 15 15 15 15 15 14 14 14 14 14
25 24 24 24 25 24 23 23 23 23 22 22 22 22 21 21 20 19 19 19 18 18 18 17 17 17 17 17 17 16 16 16 16 16 16 15 15 15 15 15 15 15 14 14 14 14 14 14 14
24 24 24 24 25 24 23 23 23 23 22 22 22 22 21 21 20 19 19 19 18 18 17 17 17 17 16 16 16 16 16 16 15 15 15 15 15 15 15 15 14 14 14 14 14 14 14 14 14
24 24 24 24 24 24 23 22 23 23 23 22 22 22 21 21 20 19 19 18 18 17 17 17 17 16 16 16 16 16 16 15 15 15 15 15 15 15 15 14 14 14 14 14 14 14 13 13 13
23 24 24 23 23 22 23 21 22 23 22 22 22 21 21 21 20 19 18 18 18 17 17 17 17 16 16 16 16 15 15 15 15 15 15 15 15 15 14 14 14 14 14 14 13 13 13 13 13
23 24 24 23 23 22 23 22 22 23 22 22 22 21 21 20 20 19 18 18 17 17 17 16 16 16 16 16 15 15 15 15 14 14 14 14 14 14 14 14 14 14 13 13 13 13 13 13 13
24 23 23 23 23 21 23 22 21 22 22 22 22 21 21 20 19 19 18 18 17 17 16 16 16 16 16 15 15 15 15 14 14 14 14 14 14 14 14 14 13 13 13 13 13 13 12 13 13
23 22 21 21 21 21 23 22 22 22 23 23 22 21 21 20 19 18 18 17 17 16 16 16 16 15 15 15 15 15 14 14 14 14 14 13 13 13 13 13 13 13 13 13 13 12 12 12 12
23 22 21 20 21 22 23 22 22 23 23 22 22 21 20 20 19 18 17 17 16 16 16 16 15 15 15 15 14 14 14 14 14 13 13 13 13 13 13 13 13 13 13 13 12 12 12 12 12
22 22 23 21 22 21 22 22 21 22 22 22 21 20 20 19 19 18 17 17 16 16 15 15 15 15 14 14 14 14 14 14 13 13 13 13 13 13 13 13 13 13 13 12 12 12 12 12 12
23 22 22 21 20 20 21 22 21 21 21 21 21 20 19 19 18 17 17 16 16 15 15 15 14 14 14 14 14 14 14 13 13 13 13 13 13 12 12 12 12 12 12 12 12 12 12 11 11
22 22 22 21 21 20 20 20 22 21 21 21 21 20 19 18 18 17 17 16 16 15 15 15 14 14 14 14 14 14 13 13 13 13 12 12 12 12 12 12 12 12 12 12 12 11 11 11 11
22 22 21 20 20 20 19 20 22 22 21 21 21 20 19 18 18 17 16 16 15 15 15 15 14 14 14 13 13 13 13 13 13 12 12 12 12 12 12 12 11 11 11 11 11 11 11 11 11
Wind_Speed
10 10 7 2 2 2 7 7 9 8 8 9 10 11 13 14 9 8 3 4 7 10 12 12 12 12 12 13 13 13 13 13 13 13 12 12 12 12 12 12 12 11 11 11 11 11 11 12 12
9 7 4 3 1 4 7 8 10 9 7 7 10 12 13 13 11 8 3 3 8 11 12 11 11 12 12 13 13 13 13 13 13 13 13 12 12 12 12 12 12 12 12 11 11 12 12 11 11
10 8 4 1 4 6 7 8 9 9 7 7 9 11 9 8 9 6 3 5 9 11 12 11 11 11 12 12 13 13 13 13 13 12 12 12 12 11 12 12 12 12 13 12 12 12 12 11 11
6 3 1 4 9 9 9 9 7 8 7 8 8 9 9 9 7 6 5 7 9 10 12 12 11 11 11 12 12 12 12 12 12 12 12 12 12 11 11 11 12 12 12 12 12 12 12 11 11
4 1 3 6 8 9 9 9 8 9 7 9 11 11 10 8 8 7 6 7 9 9 11 11 11 10 11 11 11 12 11 11 11 11 11 11 11 11 11 11 11 12 12 12 12 12 12 11 11
2 1 3 6 8 8 8 8 8 10 9 10 10 10 8 7 7 6 7 7 7 8 10 10 10 10 10 10 10 10 10 9 9 9 9 10 10 11 11 11 11 11 11 11 11 11 11 11 11
2 0 4 7 7 7 7 7 8 8 8 8 7 9 7 7 6 6 6 6 6 7 7 8 9 9 9 9 8 8 7 7 7 6 7 7 8 9 9 10 10 10 9 9 9 10 9 9 9
2 0 5 5 7 7 6 7 7 9 8 7 7 7 7 6 5 5 6 6 5 6 6 5 6 7 7 7 7 6 5 5 4 4 4 4 5 6 8 9 9 9 8 8 8 8 7 7 8
2 1 4 5 5 6 6 7 7 8 9 10 12 12 9 8 7 6 5 5 5 6 5 5 5 5 6 6 6 5 4 4 3 2 3 3 3 5 6 8 8 8 7 6 6 5 5 4 5
0 3 6 6 7 7 8 7 7 7 9 9 11 11 10 7 6 5 5 5 5 4 4 4 4 4 5 5 5 3 4 3 3 3 3 4 4 5 6 6 6 5 4 4 3 4 4 3 3
3 5 8 8 8 7 8 7 6 6 6 7 9 9 7 6 6 5 5 5 5 5 4 4 4 4 4 3 4 3 3 3 4 4 6 6 4 4 5 3 3 2 3 3 3 3 4 4 5
6 7 7 8 8 6 6 6 7 7 6 7 8 8 7 6 6 5 5 5 5 5 4 5 4 4 4 4 3 3 3 3 4 5 6 5 3 2 3 3 3 3 3 3 3 3 5 5 6
7 7 8 8 7 7 6 6 6 7 7 7 7 7 6 6 5 6 5 6 5 5 4 4 4 4 4 3 2 3 3 3 4 4 5 6 3 3 2 2 3 3 4 3 3 3 4 4 5
7 8 7 7 7 6 7 5 4 5 6 6 6 6 5 5 5 5 5 5 5 4 4 3 4 3 3 3 3 2 3 3 4 4 5 7 5 3 3 3 3 4 4 4 3 4 4 3 4
7 7 5 5 5 5 4 3 4 5 5 5 5 6 5 5 5 4 4 4 4 4 4 4 3 4 4 4 3 3 3 4 4 5 6 7 6 5 4 3 3 3 5 5 5 5 4 3 4
7 5 4 4 4 4 3 2 5 5 5 4 4 5 5 4 4 4 4 3 4 4 5 4 3 4 4 3 3 3 4 4 4 5 6 6 6 6 5 3 3 5 5 4 3 3 3 3 3
6 5 5 5 5 4 4 2 6 5 4 4 4 5 5 5 4 4 4 4 4 3 5 4 4 4 3 3 3 3 4 3 4 5 5 5 6 6 5 3 3 5 4 4 4 3 3 2 3
2 2 2 4 6 5 4 3 7 7 5 4 4 5 5 5 5 5 4 4 3 3 4 4 4 3 3 2 2 2 3 3 4 4 4 5 5 6 5 2 4 4 3 3 4 4 3 2 2
2 1 1 2 4 3 4 4 5 7 6 5 4 4 4 4 5 5 5 4 3 2 3 4 3 3 3 3 2 2 2 2 2 2 4 5 5 5 4 3 3 3 3 3 3 3 3 3 3
3 3 2 2 4 4 4 5 5 7 6 4 3 3 4 4 5 5 4 4 3 3 3 3 3 3 4 2 2 1 1 1 2 2 3 5 5 5 4 3 2 3 3 3 3 3 3 2 3
5 4 3 2 3 5 6 6 6 8 7 5 4 3 3 4 5 6 5 4 3 3 3 2 3 3 3 3 2 2 2 2 2 2 1 3 4 5 5 4 3 2 2 2 2 3 2 2 2
4 3 4 6 6 5 6 4 3 6 7 6 5 4 3 3 4 5 5 4 4 3 2 2 3 3 3 3 2 2 2 2 1 1 1 1 3 4 4 3 3 2 2 2 2 2 1 1 1
4 5 7 8 8 8 8 6 3 5 6 6 5 4 3 3 4 5 5 4 4 4 3 2 2 3 3 3 2 1 2 2 2 2 2 2 2 3 3 3 2 1 1 2 2 2 1 1 1
4 7 9 9 7 7 8 5 2 2 4 5 4 4 4 4 4 4 5 5 4 3 3 3 3 3 2 2 2 2 3 2 2 2 2 1 1 1 2 2 2 1 1 1 1 1 1 1 1
5 6 4 4 5 4 2 2 1 4 5 4 4 3 3 4 5 5 5 4 4 4 3 3 3 2 1 1 2 2 2 1 1 1 1 1 1 1 1 2 1 1 1 1 1 1 0 1 0
5 6 4 4 3 3 2 2 4 5 6 5 5 4 3 4 4 5 5 4 4 5 4 3 3 2 1 1 1 1 2 1 1 0 1 0 0 0 0 1 1 1 1 1 1 0 0 0 0
4 4 5 6 8 6 3 3 5 5 5 4 5 4 4 3 4 5 5 4 4 5 4 3 3 2 1 1 1 1 1 1 1 0 1 0 1 0 1 0 0 0 1 1 0 0 1 0 1
6 6 4 4 4 5 4 3 2 5 3 4 4 3 3 3 3 3 4 4 3 4 4 3 3 3 2 1 1 1 1 1 1 1 1 1 1 1 1 1 0 1 0 0 0 1 1 1 1
4 5 5 4 5 4 4 1 4 4 3 3 3 3 3 3 3 2 2 3 3 3 3 3 3 3 2 1 0 1 1 1 1 1 0 1 1 1 1 1 1 1 1 1 0 1 1 1 1
3 5 5 4 5 5 5 1 4 5 4 3 2 2 3 3 2 2 3 3 2 2 2 2 3 3 2 1 1 1 1 0 0 0 1 1 1 1 0 0 1 1 1 1 1 1 2 2 1
Wind_Direction
285 260 250 261 264 88 76 76 72 59 58 57 59 66 66 55 57 86 85 43 77 85 85 72 58 55 54 55 55 55 55 54 53 52 51 52 54 56 56 56 58 59 62 61 58 56 55 55 54
283 280 275 244 229 88 81 82 78 68 66 67 67 69 72 65 71 92 82 61 78 83 79 73 65 61 59 57 57 57 55 54 55 54 52 51 53 55 57 57 57 57 60 59 59 58 58 57 54
267 270 272 301 50 71 88 84 92 84 72 71 75 61 54 64 69 86 97 89 86 86 84 82 75 69 65 60 58 58 56 55 55 54 53 52 52 55 58 58 57 57 59 59 60 60 60 58 54
276 267 260 67 72 68 84 91 91 89 75 68 78 78 73 59 68 87 90 88 91 93 92 91 84 78 72 66 62 61 58 57 55 55 55 54 52 55 60 60 59 60 61 60 61 61 60 57 52
252 270 91 88 82 77 77 87 88 85 81 74 78 89 87 75 80 87 85 81 89 94 97 98 94 86 81 74 68 64 61 59 57 56 57 56 54 59 63 62 64 63 64 62 62 61 60 57 54
270 259 112 100 92 83 81 85 83 79 80 82 89 96 92 87 80 84 86 80 87 98 106 107 106 99 92 84 76 70 64 61 60 59 58 60 61 65 65 65 66 65 64 64 63 62 61 57 55
287 16 105 111 109 96 84 86 87 85 73 69 87 93 102 89 83 87 87 83 84 93 103 117 121 114 108 100 89 80 73 68 67 67 67 66 67 72 71 69 69 67 65 64 64 63 61 59 57
304 142 111 105 108 96 90 88 82 84 75 62 72 90 108 107 110 105 103 95 85 86 93 103 110 114 119 117 106 100 88 78 82 77 72 82 84 86 83 77 73 72 69 66 64 65 63 59 59
277 109 94 98 110 112 116 109 95 89 86 73 68 83 103 120 124 120 112 101 84 79 82 86 95 97 91 98 102 119 99 73 76 84 52 68 95 95 86 87 86 81 78 71 62 55 58 63 63
192 79 90 93 106 119 115 104 117 108 93 88 86 91 109 125 128 119 108 101 95 84 79 85 86 88 86 78 98 100 89 84 55 52 65 43 60 76 83 97 93 92 89 75 49 32 48 47 65
88 86 86 87 94 105 111 104 90 98 91 95 106 111 117 126 114 107 106 98 89 81 70 70 68 78 80 84 81 68 69 64 48 39 62 50 48 76 89 98 104 85 78 54 50 53 46 46 48
97 88 95 100 96 93 99 100 85 77 82 93 106 121 127 125 117 106 94 95 94 84 67 63 59 71 67 71 84 74 56 54 48 32 61 58 40 58 76 74 65 60 68 52 36 40 45 40 45
107 102 99 99 101 99 95 93 92 83 91 99 105 113 119 118 106 102 100 97 93 90 74 63 57 60 70 75 53 72 62 42 47 31 47 64 50 46 58 65 58 42 48 54 38 42 46 37 42
116 118 121 121 120 123 115 109 113 107 116 118 122 124 117 104 105 98 95 92 96 94 84 70 70 71 70 71 62 54 64 68 48 37 41 57 56 58 53 55 52 42 40 40 44 49 45 46 47
134 136 136 148 156 150 133 117 115 128 131 134 134 124 117 109 106 98 91 89 93 101 98 76 82 75 68 70 70 63 56 58 46 38 29 49 53 59 52 43 45 45 44 43 47 46 38 43 53
179 173 169 166 173 168 190 147 128 142 150 147 141 131 132 131 124 115 105 102 93 93 94 83 67 69 68 69 76 62 65 57 50 46 24 32 44 61 56 43 44 49 47 44 53 51 34 34 43
202 196 172 165 171 179 206 162 142 152 164 164 160 148 149 148 137 118 105 92 85 88 94 92 76 67 68 78 89 66 68 60 56 49 31 20 30 53 60 45 52 51 47 35 40 46 32 33 42
209 202 182 174 166 180 199 184 160 165 185 194 186 174 167 158 147 131 122 102 96 90 94 94 89 80 72 58 73 73 66 62 50 48 36 27 31 48 59 55 59 59 58 41 37 34 29 23 25
300 251 206 150 150 198 221 211 179 172 189 204 201 191 174 159 138 128 132 125 117 98 89 90 81 76 66 43 47 53 55 73 59 56 40 40 42 45 57 48 58 64 64 57 51 38 23 18 22
285 269 228 183 177 217 232 234 198 177 187 196 215 201 177 162 144 135 138 128 122 105 88 92 86 79 80 68 55 66 81 89 89 59 45 43 39 38 48 53 62 69 72 56 51 59 30 9 28
258 275 294 287 245 227 236 244 217 176 176 177 209 221 190 174 161 152 147 135 122 113 104 98 100 94 87 84 67 50 51 45 56 54 47 39 39 38 35 35 57 66 79 76 56 69 66 13 354
283 320 301 277 269 255 232 258 238 173 173 175 182 196 194 173 159 147 146 140 131 118 109 102 88 84 81 81 70 65 63 53 48 47 57 48 49 45 37 31 47 59 67 78 56 62 59 69 350
325 318 286 271 268 274 257 257 232 178 177 181 177 180 180 161 146 147 145 136 131 124 116 103 85 77 83 90 90 78 65 58 50 54 57 57 50 49 48 41 40 47 88 102 87 65 48 57 41
303 278 265 254 255 259 251 245 240 182 162 159 158 166 168 159 144 136 128 130 123 114 121 116 95 74 73 93 105 95 85 74 54 46 39 31 43 33 50 57 47 39 56 89 102 112 92 60 23
267 279 266 237 221 241 213 229 156 96 90 102 110 116 141 145 142 137 133 138 138 137 131 123 114 110 93 82 86 92 92 83 75 59 52 31 31 21 11 46 56 28 32 62 76 108 135 126 64
264 266 279 292 283 293 220 224 112 103 93 90 98 96 104 125 140 138 135 139 143 148 157 145 134 130 129 113 87 93 101 97 98 151 106 77 342 205 95 60 69 43 15 33 66 96 351 136 256
285 267 282 291 289 284 246 157 131 133 120 106 93 86 88 97 125 134 137 142 146 152 156 154 153 146 140 119 95 87 92 100 115 94 76 49 300 342 66 61 56 124 60 30 49 213 226 217 221
261 295 289 277 296 284 263 242 166 130 125 123 113 106 98 94 95 118 140 145 144 150 150 165 171 157 143 140 157 117 99 72 72 69 52 336 336 356 329 319 348 332 47 63 352 287 278 270 250
235 255 269 276 272 288 299 3 58 109 118 125 118 112 108 101 101 109 124 135 137 134 147 170 165 148 150 178 167 98 81 50 58 54 289 292 320 336 339 342 16 15 348 346 1 306 303 285 292
263 269 276 277 285 285 283 302 83 83 78 72 81 89 96 99 109 115 122 118 117 127 155 183 160 148 149 172 172 124 113 71 42 295 280 274 262 257 275 355 18 35 4 345 4 328 321 285 272
Height
1492 1492 1493 1494 1495 1500 1505 1503 1500 1501 1502 1503 1503 1504 1509 1512 1517 1528 1528 1526 1525 1523 1522 1521 1520 1518 1518 1517 1516 1515 1515 1514 1513 1513 1512 1511 1511 1510 1509 1509 1509 1508 1508 1508 1508 1508 1507 1507 1507
1493 1494 1495 1494 1498 1510 1510 1503 1504 1504 1505 1505 1506 1508 1511 1517 1521 1525 1526 1526 1526 1525 1523 1522 1521 1520 1519 1518 1518 1517 1516 1515 1515 1514 1513 1513 1512 1511 1511 1510 1510 1510 1509 1509 1509 1509 1509 1508 1508
1494 1495 1496 1494 1500 1509 1510 1504 1504 1505 1506 1507 1509 1512 1516 1521 1524 1526 1527 1527 1527 1526 1525 1524 1523 1522 1521 1520 1519 1519 1518 1517 1516 1516 1515 1514 1513 1512 1512 1512 1511 1511 1511 1510 1510 1510 1510 1509 1509
1496 1496 1496 1500 1507 1504 1504 1505 1505 1506 1508 1508 1510 1516 1522 1525 1526 1527 1528 1528 1527 1527 1526 1525 1524 1523 1523 1522 1521 1520 1520 1519 1518 1517 1516 1515 1514 1513 1513 1513 1513 1513 1512 1512 1512 1511 1511 1511 1511
1497 1497 1500 1507 1507 1505 1504 1505 1507 1508 1510 1512 1514 1520 1525 1527 1527 1528 1528 1529 1528 1528 1527 1527 1526 1525 1524 1524 1523 1522 1521 1520 1519 1519 1518 1517 1515 1514 1514 1515 1514 1514 1514 1514 1513 1513 1513 1512 1512
1498 1496 1506 1513 1511 1506 1506 1508 1509 1510 1512 1514 1516 1520 1526 1529 1528 1529 1529 1530 1530 1529 1529 1528 1527 1527 1526 1526 1525 1524 1523 1522 1521 1520 1520 1519 1518 1516 1517 1516 1516 1516 1516 1515 1515 1515 1514 1514 1514
1499 1499 1506 1509 1512 1510 1509 1510 1511 1513 1514 1516 1518 1522 1527 1529 1529 1530 1530 1531 1531 1530 1530 1529 1528 1528 1528 1527 1526 1526 1525 1524 1523 1522 1521 1521 1520 1519 1519 1518 1518 1518 1517 1517 1517 1516 1516 1516 1515
1499 1500 1504 1507 1512 1514 1512 1512 1513 1515 1517 1519 1520 1523 1528 1530 1530 1531 1531 1531 1532 1532 1531 1531 1530 1530 1529 1528 1528 1527 1526 1525 1525 1524 1523 1522 1521 1521 1520 1520 1520 1520 1519 1519 1518 1518 1518 1518 1517
1499 1503 1509 1510 1512 1514 1513 1514 1516 1518 1520 1521 1523 1525 1528 1530 1531 1531 1531 1532 1532 1533 1532 1532 1532 1531 1531 1530 1529 1529 1528 1527 1526 1525 1525 1524 1523 1522 1522 1522 1521 1521 1521 1521 1520 1520 1520 1519 1519
1500 1507 1508 1506 1508 1511 1513 1514 1516 1519 1521 1523 1526 1528 1529 1530 1531 1531 1532 1533 1533 1533 1534 1533 1533 1533 1532 1531 1530 1530 1529 1528 1527 1526 1526 1525 1524 1524 1523 1523 1523 1523 1523 1522 1522 1522 1521 1521 1521
1502 1506 1506 1508 1510 1512 1514 1516 1517 1519 1522 1525 1527 1529 1530 1531 1531 1532 1533 1533 1534 1534 1534 1534 1534 1533 1533 1532 1531 1531 1530 1529 1529 1528 1527 1526 1525 1525 1524 1524 1524 1524 1524 1523 1523 1523 1523 1522 1522
1505 1507 1508 1511 1513 1514 1516 1518 1520 1522 1525 1526 1527 1529 1530 1531 1532 1532 1533 1534 1535 1535 1535 1535 1534 1534 1533 1533 1532 1532 1531 1530 1529 1529 1528 1526 1525 1525 1525 1525 1525 1525 1525 1525 1524 1524 1524 1523 1523
1507 1510 1511 1513 1515 1517 1518 1520 1522 1525 1526 1527 1528 1530 1530 1531 1532 1533 1534 1534 1535 1535 1535 1535 1535 1535 1534 1533 1533 1533 1532 1531 1530 1530 1529 1527 1526 1526 1526 1526 1526 1526 1526 1526 1525 1525 1525 1524 1524
1509 1511 1513 1515 1516 1518 1520 1522 1523 1526 1527 1528 1529 1530 1530 1531 1532 1533 1534 1534 1535 1535 1535 1535 1535 1534 1534 1534 1533 1533 1533 1532 1531 1530 1530 1529 1528 1527 1526 1527 1527 1527 1526 1526 1526 1526 1525 1525 1524
1510 1512 1514 1515 1516 1517 1519 1523 1523 1525 1526 1528 1528 1529 1531 1532 1532 1533 1534 1534 1535 1535 1535 1535 1535 1535 1534 1534 1534 1533 1533 1533 1532 1531 1530 1530 1529 1528 1527 1527 1527 1527 1527 1527 1526 1526 1526 1525 1525
1509 1512 1518 1515 1515 1516 1522 1528 1524 1525 1526 1527 1528 1529 1530 1531 1532 1533 1534 1534 1535 1535 1535 1535 1535 1535 1534 1534 1534 1534 1533 1533 1532 1531 1531 1530 1530 1529 1528 1528 1528 1527 1527 1527 1527 1526 1526 1525 1525
1509 1515 1517 1516 1513 1515 1519 1524 1522 1524 1525 1526 1527 1528 1529 1530 1531 1533 1533 1534 1534 1535 1534 1535 1534 1535 1534 1534 1534 1534 1533 1532 1532 1532 1531 1531 1530 1530 1529 1529 1529 1528 1527 1527 1527 1527 1526 1526 1525
1513 1512 1513 1515 1513 1514 1518 1520 1520 1522 1523 1524 1525 1526 1527 1529 1530 1532 1533 1533 1534 1534 1534 1534 1534 1534 1534 1534 1534 1533 1533 1533 1532 1532 1531 1531 1531 1530 1529 1529 1529 1528 1528 1527 1527 1527 1526 1526 1526
1507 1510 1514 1512 1510 1514 1517 1517 1517 1519 1521 1522 1523 1524 1525 1527 1529 1530 1531 1532 1533 1533 1534 1534 1534 1534 1533 1533 1533 1533 1533 1532 1532 1532 1531 1531 1531 1530 1530 1529 1529 1528 1528 1528 1527 1527 1527 1526 1526
1508 1512 1513 1511 1508 1512 1515 1515 1513 1515 1517 1519 1521 1522 1523 1525 1527 1528 1530 1531 1532 1532 1533 1533 1533 1533 1533 1533 1533 1533 1533 1532 1532 1532 1531 1531 1530 1530 1530 1529 1529 1528 1528 1528 1527 1527 1527 1527 1526
1510 1512 1512 1513 1510 1509 1513 1517 1511 1511 1514 1517 1518 1520 1521 1523 1525 1526 1528 1529 1530 1531 1532 1532 1533 1532 1532 1532 1532 1532 1532 1532 1531 1531 1531 1530 1530 1529 1529 1529 1529 1528 1528 1527 1527 1527 1527 1527 1527
1513 1508 1509 1511 1516 1517 1513 1525 1513 1508 1511 1513 1516 1518 1519 1521 1523 1524 1526 1527 1529 1530 1531 1531 1532 1532 1531 1531 1531 1531 1531 1531 1530 1530 1530 1529 1529 1529 1528 1528 1528 1527 1527 1527 1527 1527 1527 1527 1526
1510 1508 1508 1510 1513 1515 1511 1517 1515 1506 1511 1511 1513 1515 1517 1519 1521 1523 1524 1526 1527 1528 1529 1530 1530 1531 1531 1530 1530 1530 1530 1530 1530 1529 1529 1529 1528 1528 1527 1527 1527 1527 1526 1527 1526 1527 1527 1527 1527
1509 1510 1508 1507 1512 1524 1511 1515 1518 1508 1507 1508 1510 1513 1515 1517 1519 1521 1523 1524 1525 1527 1527 1528 1529 1529 1530 1530 1529 1529 1529 1529 1529 1528 1528 1528 1527 1527 1526 1526 1526 1526 1525 1526 1525 1526 1526 1526 1526
1511 1517 1525 1525 1526 1521 1504 1511 1513 1504 1503 1506 1509 1511 1514 1516 1518 1520 1521 1522 1523 1524 1525 1526 1527 1528 1528 1528 1528 1528 1528 1528 1528 1527 1527 1526 1526 1526 1526 1525 1525 1525 1524 1524 1524 1525 1525 1525 1525
1511 1515 1529 1534 1528 1517 1507 1513 1510 1503 1504 1506 1509 1511 1513 1515 1516 1518 1520 1521 1522 1523 1524 1525 1526 1526 1527 1527 1527 1527 1527 1527 1526 1526 1525 1525 1525 1525 1524 1524 1524 1523 1523 1523 1523 1523 1524 1524 1524
1513 1513 1510 1519 1517 1520 1512 1507 1508 1504 1505 1507 1509 1511 1513 1514 1515 1517 1518 1520 1521 1522 1522 1523 1524 1525 1525 1525 1525 1525 1525 1525 1525 1525 1524 1524 1523 1523 1523 1523 1522 1522 1521 1521 1521 1521 1522 1522 1522
1510 1510 1514 1520 1528 1529 1516 1511 1511 1508 1507 1507 1510 1511 1513 1514 1515 1516 1517 1518 1519 1520 1521 1522 1522 1523 1523 1524 1524 1524 1523 1523 1523 1523 1522 1522 1522 1521 1521 1521 1521 1520 1520 1520 1519 1519 1520 1520 1520
1511 1513 1513 1515 1516 1527 1529 1521 1503 1505 1505 1507 1509 1511 1512 1513 1515 1516 1516 1517 1518 1519 1520 1520 1520 1521 1521 1522 1522 1522 1522 1521 1521 1521 1520 1520 1519 1519 1519 1518 1518 1518 1518 1518 1517 1517 1517 1518 1518
1508 1511 1513 1524 1522 1517 1523 1523 1501 1503 1504 1507 1508 1510 1511 1513 1514 1514 1515 1516 1517 1517 1518 1518 1519 1519 1519 1519 1520 1520 1520 1519 1519 1519 1518 1518 1517 1517 1516 1516 1516 1515 1515 1515 1515 1514 1515 1515 1515